Regional Weather Roundup
Issued by NWS

Home | Current Version | Previous Version | Graphics & Text | Print | Product List | Glossary On
Versions: 1 2 3 4 5 6 7 8 9 10 11 12 13 14 15 16 17 18 19 20 21 22 23 24 25 26 27 28 29 30 31 32 33 34 35 36 37 38 39 40 41 42 43 44 45 46 47 48 49 50
000
ASUS43 KOAX 101602
RWRNE

WEATHER ROUNDUP FOR NEBRASKA
NATIONAL WEATHER SERVICE OMAHA NE
1000 AM CST SAT DEC 10 2016

NOTES: SATELLITE DATA IS BEING USED TO AUGMENT CLOUD COVER ABOVE
       12000 FEET.
       "FAIR" INDICATES FEW OR NO CLOUDS BELOW 12,000 FEET WITH NO
       SIGNIFICANT WEATHER AND/OR OBSTRUCTIONS TO VISIBILITY.

  * THESE STATIONS DO NOT REPORT WEATHER SUCH AS RAIN...SNOW OR FOG.

NEZ001>004-019>022-054>056-101700-
NEBRASKA PANHANDLE

CITY           SKY/WX    TMP DP  RH WIND       PRES   REMARKS
SCOTTSBLUFF    CLOUDY    18  13  80 SE9       29.87F WCI   7
ALLIANCE       CLOUDY    18  15  88 SE14      29.87F WCI   4
CHADRON        CLOUDY     7   2  80 CALM      29.94F
KIMBALL        CLOUDY    32  27  81 W5        29.87S WCI  27
SIDNEY         CLOUDY    23  18  81 S13       29.89F WCI  11
$$

NEZ057>060-069>072-079>082-101700-
SOUTHWEST NEBRASKA

CITY           SKY/WX    TMP DP  RH WIND       PRES   REMARKS
NORTH PLATTE   CLOUDY    21  14  74 SE8       30.06R WCI  11
IMPERIAL       CLOUDY    19  15  84 SE16      29.96F WCI   4
LEXINGTON      CLOUDY    24  16  71 SE15      30.11F WCI  11
MCCOOK         CLOUDY    20  14  77 SE14      30.07F WCI   7
OGALLALA       CLOUDY    22  18  84 SE10      30.00S WCI  11
$$

NEZ005>010-023>029-035>040-094-101700-
NORTH CENTRAL NEBRASKA

CITY           SKY/WX    TMP DP  RH WIND       PRES   REMARKS
VALENTINE      CLOUDY    10   5  80 E12       30.06F HAZE    WCI  -5
AINSWORTH      CLOUDY    17  16  95 SE10      30.09F WCI   5
BROKEN BOW     CLOUDY    22  16  78 S17G28    30.09F WCI   8
O`NEILL        CLOUDY    19  16  91 SE15      30.18F WCI   4
ORD            CLOUDY    22  14  71 SE20G25   30.15F WCI   7
THEDFORD       CLOUDY    22  17  81 SE15G21   30.03F WCI   8
$$

NEZ041-046>049-061>064-073>077-083>087-101700-
SOUTH CENTRAL NEBRASKA

CITY           SKY/WX    TMP DP  RH WIND       PRES   REMARKS
GRAND ISLAND   CLOUDY    23  17  78 SE13      30.22F WCI  11
AURORA         CLOUDY    25  19  78 SE12      30.24F WCI  14
HASTINGS       MOSUNNY   26  16  65 SE14      30.21F WCI  14
HEBRON         CLOUDY    28  17  63 SE14      30.28S WCI  17
HOLDREGE       CLOUDY    23  16  75 SE15G21   30.13F WCI  10
KEARNEY *      CLOUDY    25  14  63 SE17      30.17F WCI  11
YORK           CLOUDY    25  18  74 SE10      30.27F WCI  15
$$

NEZ011>018-030>034-042>045-101700-
NORTHEAST NEBRASKA

CITY           SKY/WX    TMP DP  RH WIND       PRES   REMARKS
NORFOLK        CLOUDY    20  16  84 SE10      30.27R WCI   9
ALBION         CLOUDY    21  17  85 SE13      30.22F WCI   9
BLAIR          CLOUDY    23  20  89 E8        30.32F WCI  14
FREMONT        CLOUDY    22  20  89 SE10      30.32F WCI  12
TEKAMAH        LGT SNOW  22  18  85 SE9       30.35F FOG     WCI  12
WAYNE          CLOUDY    19  16  88 SE9       30.29F WCI   9
$$

NEZ050>053-065>068-078-088>093-101700-
SOUTHEAST NEBRASKA

CITY           SKY/WX    TMP DP  RH WIND       PRES   REMARKS
LINCOLN        CLOUDY    27  18  69 S9        30.34F WCI  18
OMAHA EPPLEY   FLURRIES  25  18  74 SE10      30.36F WCI  15
BEATRICE       CLOUDY    29  18  62 SE10      30.31S WCI  20
FALLS CITY     CLOUDY    28  16  60 SE10      30.36F WCI  19
NEBRASKA CITY  CLOUDY    27  14  59 SE8       30.34F WCI  18
PLATTSMOUTH    CLOUDY    27  15  61 SE9       30.34F WCI  17
$$

NEZ044-045-051>053-067-101700-
OMAHA AREA

CITY           SKY/WX    TMP DP  RH WIND       PRES   REMARKS
OMAHA EPPLEY   FLURRIES  25  18  74 SE10      30.36F WCI  15
BLAIR          CLOUDY    23  20  89 E8        30.32F WCI  14
FREMONT        CLOUDY    22  20  89 SE10      30.32F WCI  12
MILLARD        CLOUDY    27  19  69 SE7       30.35F WCI  20
OFFUTT AFB     CLOUDY    26  17  70 SE10      30.35F WCI  16
PLATTSMOUTH    CLOUDY    27  15  61 SE9       30.34F WCI  17
WAHOO          PTSUNNY   25  18  72 SE12      30.33F WCI  15
$$




USA.gov is the U.S. government's official web portal to all federal, state and local government web resources and services.